Year,Month,Day,Hour,Minute,Value (Times are PST for windspeed in km/hr)
2016,08,21,00,00,2.90
2016,08,21,00,01,3.00
2016,08,21,00,02,3.40
2016,08,21,00,03,4.30
2016,08,21,00,04,4.10
2016,08,21,00,05,3.40
2016,08,21,00,06,4.40
2016,08,21,00,07,4.50
2016,08,21,00,08,4.20
2016,08,21,00,09,4.90
2016,08,21,00,10,4.20
2016,08,21,00,11,5.10
2016,08,21,00,12,4.60
2016,08,21,00,13,5.10
2016,08,21,00,14,5.10
2016,08,21,00,15,4.80
2016,08,21,00,16,5.40
2016,08,21,00,17,3.50
2016,08,21,00,18,1.80
2016,08,21,00,19,1.50
2016,08,21,00,20,2.60
2016,08,21,00,21,2.10
2016,08,21,00,22,0.50
2016,08,21,00,23,1.60
2016,08,21,00,24,2.40
2016,08,21,00,25,1.90
2016,08,21,00,26,3.40
2016,08,21,00,27,4.10
2016,08,21,00,28,5.10
2016,08,21,00,29,5.30
2016,08,21,00,30,5.70
2016,08,21,00,31,5.10
2016,08,21,00,32,4.00
2016,08,21,00,33,4.40
2016,08,21,00,34,3.30
2016,08,21,00,35,4.80
2016,08,21,00,36,4.60
2016,08,21,00,37,4.40
2016,08,21,00,38,4.30
2016,08,21,00,39,5.70
2016,08,21,00,40,4.30
2016,08,21,00,41,3.20
2016,08,21,00,42,3.90
2016,08,21,00,43,4.80
2016,08,21,00,44,2.80
2016,08,21,00,45,3.10
2016,08,21,00,46,2.90
2016,08,21,00,47,2.90
2016,08,21,00,48,5.20
2016,08,21,00,49,4.20
2016,08,21,00,50,3.60
2016,08,21,00,51,3.60
2016,08,21,00,52,4.50
2016,08,21,00,53,4.50
2016,08,21,00,54,4.50
2016,08,21,00,55,4.50
2016,08,21,00,56,2.80
2016,08,21,00,57,3.40
2016,08,21,00,58,2.10
2016,08,21,00,59,2.20
2016,08,21,01,00,2.10
2016,08,21,01,01,1.40
2016,08,21,01,02,1.90
2016,08,21,01,03,1.70
2016,08,21,01,04,1.30
2016,08,21,01,05,1.30
2016,08,21,01,06,0.10
2016,08,21,01,07,0.00
2016,08,21,01,08,0.00
2016,08,21,01,09,0.00
2016,08,21,01,10,0.00
2016,08,21,01,11,0.00
2016,08,21,01,12,0.00
2016,08,21,01,13,0.00
2016,08,21,01,14,0.00
2016,08,21,01,15,0.00
2016,08,21,01,16,0.00
2016,08,21,01,17,0.00
2016,08,21,01,18,0.00
2016,08,21,01,19,0.00
2016,08,21,01,20,1.70
2016,08,21,01,21,4.00
2016,08,21,01,22,2.90
2016,08,21,01,23,1.10
2016,08,21,01,24,0.00
2016,08,21,01,25,0.00
2016,08,21,01,26,0.00
2016,08,21,01,27,0.00
2016,08,21,01,28,0.00
2016,08,21,01,29,2.40
2016,08,21,01,30,0.40
2016,08,21,01,31,0.00
2016,08,21,01,32,0.00
2016,08,21,01,33,0.00
2016,08,21,01,34,0.00
2016,08,21,01,35,0.00
2016,08,21,01,36,0.00
2016,08,21,01,37,0.00
2016,08,21,01,38,0.00
2016,08,21,01,39,0.00
2016,08,21,01,40,0.00
2016,08,21,01,41,0.00
2016,08,21,01,42,0.00
2016,08,21,01,43,0.00
2016,08,21,01,44,0.00
2016,08,21,01,45,0.00
2016,08,21,01,46,0.00
2016,08,21,01,47,0.00
2016,08,21,01,48,0.00
2016,08,21,01,49,0.00
2016,08,21,01,50,0.00
2016,08,21,01,51,0.00
2016,08,21,01,52,0.00
2016,08,21,01,53,0.00
2016,08,21,01,54,0.00
2016,08,21,01,55,3.00
2016,08,21,01,56,3.00
2016,08,21,01,57,1.70
2016,08,21,01,58,2.40
2016,08,21,01,59,1.90
2016,08,21,02,00,1.30
2016,08,21,02,01,0.20
2016,08,21,02,02,0.00
2016,08,21,02,03,0.00
2016,08,21,02,04,0.00
2016,08,21,02,05,0.00
2016,08,21,02,06,0.00
2016,08,21,02,07,0.00
2016,08,21,02,08,0.00
2016,08,21,02,09,0.00
2016,08,21,02,10,2.40
2016,08,21,02,11,2.10
2016,08,21,02,12,0.80
2016,08,21,02,13,1.00
2016,08,21,02,14,1.60
2016,08,21,02,15,2.10
2016,08,21,02,16,1.20
2016,08,21,02,17,0.00
2016,08,21,02,18,0.00
2016,08,21,02,19,0.00
2016,08,21,02,20,0.00
2016,08,21,02,21,0.00
2016,08,21,02,22,0.00
2016,08,21,02,23,0.00
2016,08,21,02,24,0.00
2016,08,21,02,25,0.00
2016,08,21,02,26,0.00
2016,08,21,02,27,0.00
2016,08,21,02,28,0.00
2016,08,21,02,29,0.00
2016,08,21,02,30,0.00
2016,08,21,02,31,0.00
2016,08,21,02,32,0.00
2016,08,21,02,33,0.00
2016,08,21,02,34,0.00
2016,08,21,02,35,0.00
2016,08,21,02,36,0.00
2016,08,21,02,37,0.00
2016,08,21,02,38,0.00
2016,08,21,02,39,0.00
2016,08,21,02,40,0.00
2016,08,21,02,41,0.00
2016,08,21,02,42,0.00
2016,08,21,02,43,0.00
2016,08,21,02,44,0.00
2016,08,21,02,45,0.00
2016,08,21,02,46,0.00
2016,08,21,02,47,0.00
2016,08,21,02,48,0.00
2016,08,21,02,49,0.50
2016,08,21,02,50,1.60
2016,08,21,02,51,1.40
2016,08,21,02,52,1.40
2016,08,21,02,53,2.70
2016,08,21,02,54,1.90
2016,08,21,02,55,1.40
2016,08,21,02,56,2.10
2016,08,21,02,57,1.10
2016,08,21,02,58,1.00
2016,08,21,02,59,1.80
2016,08,21,03,00,1.90
2016,08,21,03,01,2.10
2016,08,21,03,02,1.60
2016,08,21,03,03,0.40
2016,08,21,03,05,1.20
2016,08,21,03,06,1.90
2016,08,21,03,07,2.50
2016,08,21,03,08,2.50
2016,08,21,03,09,2.30
2016,08,21,03,10,2.00
2016,08,21,03,11,1.30
2016,08,21,03,12,0.00
2016,08,21,03,13,0.00
2016,08,21,03,14,0.00
2016,08,21,03,15,0.00
2016,08,21,03,16,0.00
2016,08,21,03,17,0.00
2016,08,21,03,18,0.00
2016,08,21,03,19,0.00
2016,08,21,03,20,0.00
2016,08,21,03,21,0.00
2016,08,21,03,22,0.00
2016,08,21,03,23,0.00
2016,08,21,03,24,0.00
2016,08,21,03,25,0.00
2016,08,21,03,26,0.00
2016,08,21,03,27,1.40
2016,08,21,03,28,3.60
2016,08,21,03,29,2.10
2016,08,21,03,30,1.80
2016,08,21,03,31,2.50
2016,08,21,03,32,2.50
2016,08,21,03,33,1.90
2016,08,21,03,34,2.70
2016,08,21,03,35,3.60
2016,08,21,03,36,3.90
2016,08,21,03,37,4.20
2016,08,21,03,38,3.90
2016,08,21,03,39,3.30
2016,08,21,03,40,3.10
2016,08,21,03,41,5.20
2016,08,21,03,42,4.00
2016,08,21,03,43,5.40
2016,08,21,03,44,4.80
2016,08,21,03,45,4.80
2016,08,21,03,46,4.20
2016,08,21,03,47,5.60
2016,08,21,03,48,4.20
2016,08,21,03,49,4.00
2016,08,21,03,50,4.40
2016,08,21,03,51,3.60
2016,08,21,03,52,2.70
2016,08,21,03,53,3.20
2016,08,21,03,54,5.70
2016,08,21,03,55,4.50
2016,08,21,03,56,4.10
2016,08,21,03,57,5.50
2016,08,21,03,58,3.70
2016,08,21,03,59,4.20
2016,08,21,04,00,3.90
2016,08,21,04,01,4.20
2016,08,21,04,02,5.20
2016,08,21,04,03,4.90
2016,08,21,04,04,5.10
2016,08,21,04,05,5.10
2016,08,21,04,06,5.10
2016,08,21,04,07,4.10
2016,08,21,04,08,5.00
2016,08,21,04,09,5.40
2016,08,21,04,10,5.70
2016,08,21,04,11,5.10
2016,08,21,04,12,5.70
2016,08,21,04,13,4.20
2016,08,21,04,14,3.10
2016,08,21,04,15,1.80
2016,08,21,04,16,3.20
2016,08,21,04,17,3.40
2016,08,21,04,18,3.30
2016,08,21,04,19,4.90
2016,08,21,04,20,2.90
2016,08,21,04,21,2.80
2016,08,21,04,22,2.40
2016,08,21,04,23,2.00
2016,08,21,04,24,2.30
2016,08,21,04,25,2.70
2016,08,21,04,26,2.20
2016,08,21,04,27,2.20
2016,08,21,04,28,3.60
2016,08,21,04,29,2.00
2016,08,21,04,30,0.20
2016,08,21,04,31,0.30
2016,08,21,04,32,1.60
2016,08,21,04,33,2.30
2016,08,21,04,34,2.00
2016,08,21,04,35,3.70
2016,08,21,04,36,1.90
2016,08,21,04,37,1.30
2016,08,21,04,38,2.60
2016,08,21,04,39,2.30
2016,08,21,04,40,1.70
2016,08,21,04,41,0.10
2016,08,21,04,42,0.00
2016,08,21,04,43,0.00
2016,08,21,04,44,0.00
2016,08,21,04,45,0.00
2016,08,21,04,46,0.00
2016,08,21,04,47,0.00
2016,08,21,04,48,0.00
2016,08,21,04,49,0.00
2016,08,21,04,50,0.00
2016,08,21,04,51,0.00
2016,08,21,04,52,1.70
2016,08,21,04,53,1.60
2016,08,21,04,54,0.40
2016,08,21,04,55,0.00
2016,08,21,04,56,0.00
2016,08,21,04,57,0.00
2016,08,21,04,58,1.10
2016,08,21,04,59,2.10
2016,08,21,05,00,1.60
2016,08,21,05,01,2.10
2016,08,21,05,02,0.70
2016,08,21,05,03,0.90
2016,08,21,05,04,0.40
2016,08,21,05,05,0.40
2016,08,21,05,06,0.40
2016,08,21,05,07,0.40
2016,08,21,05,08,0.50
2016,08,21,05,09,0.10
2016,08,21,05,10,0.00
2016,08,21,05,11,0.00
2016,08,21,05,12,0.00
2016,08,21,05,13,0.00
2016,08,21,05,14,0.00
2016,08,21,05,15,0.00
2016,08,21,05,16,0.00
2016,08,21,05,17,0.00
2016,08,21,05,18,0.00
2016,08,21,05,19,0.00
2016,08,21,05,20,0.00
2016,08,21,05,21,0.00
2016,08,21,05,22,0.00
2016,08,21,05,23,0.00
2016,08,21,05,24,0.00
2016,08,21,05,25,0.00
2016,08,21,05,26,0.00
2016,08,21,05,27,0.00
2016,08,21,05,28,0.00
2016,08,21,05,29,0.00
2016,08,21,05,30,0.00
2016,08,21,05,31,0.00
2016,08,21,05,32,0.00
2016,08,21,05,33,0.00
2016,08,21,05,34,0.00
2016,08,21,05,35,0.00
2016,08,21,05,36,0.00
2016,08,21,05,37,0.00
2016,08,21,05,38,0.00
2016,08,21,05,39,0.00
2016,08,21,05,40,0.00
2016,08,21,05,41,0.00
2016,08,21,05,42,0.00
2016,08,21,05,43,0.00
2016,08,21,05,44,0.00
2016,08,21,05,45,0.00
2016,08,21,05,46,0.00
2016,08,21,05,47,0.00
2016,08,21,05,48,0.00
2016,08,21,05,49,0.00
2016,08,21,05,50,0.00
2016,08,21,05,51,0.00
2016,08,21,05,52,0.00
2016,08,21,05,53,0.00
2016,08,21,05,54,0.00
2016,08,21,05,55,0.00
2016,08,21,05,56,0.00
2016,08,21,05,57,0.00
2016,08,21,05,58,0.00
2016,08,21,05,59,0.00
2016,08,21,06,00,0.00
2016,08,21,06,01,0.00
2016,08,21,06,02,0.00
2016,08,21,06,03,0.00
2016,08,21,06,04,0.00
2016,08,21,06,05,0.00
2016,08,21,06,06,0.00
2016,08,21,06,07,3.80
2016,08,21,06,08,4.00
2016,08,21,06,09,5.50
2016,08,21,06,10,4.20
2016,08,21,06,11,5.10
2016,08,21,06,12,8.40
2016,08,21,06,13,3.90
2016,08,21,06,14,4.60
2016,08,21,06,15,4.30
2016,08,21,06,16,5.40
2016,08,21,06,17,3.50
2016,08,21,06,18,3.30
2016,08,21,06,19,5.40
2016,08,21,06,20,4.60
2016,08,21,06,21,4.10
2016,08,21,06,22,3.20
2016,08,21,06,23,2.00
2016,08,21,06,24,0.80
2016,08,21,06,25,0.90
2016,08,21,06,26,4.30
2016,08,21,06,27,3.50
2016,08,21,06,28,4.50
2016,08,21,06,29,4.50
2016,08,21,06,30,4.80
2016,08,21,06,31,5.80
2016,08,21,06,32,7.60
2016,08,21,06,33,5.80
2016,08,21,06,34,6.90
2016,08,21,06,35,5.50
2016,08,21,06,36,4.40
2016,08,21,06,37,3.90
2016,08,21,06,38,2.20
2016,08,21,06,39,2.50
2016,08,21,06,40,2.10
2016,08,21,06,41,4.60
2016,08,21,06,42,4.00
2016,08,21,06,43,2.90
2016,08,21,06,44,3.30
2016,08,21,06,45,3.40
2016,08,21,06,46,4.20
2016,08,21,06,47,4.90
2016,08,21,06,48,4.60
2016,08,21,06,49,5.00
2016,08,21,06,50,5.90
2016,08,21,06,51,7.80
2016,08,21,06,52,9.10
2016,08,21,06,53,7.10
2016,08,21,06,54,6.00
2016,08,21,06,55,6.00
2016,08,21,06,56,5.30
2016,08,21,06,57,6.20
2016,08,21,06,58,6.40
2016,08,21,06,59,6.70
2016,08,21,07,00,4.60
2016,08,21,07,01,6.60
2016,08,21,07,02,7.00
2016,08,21,07,03,11.30
2016,08,21,07,04,6.70
2016,08,21,07,05,6.70
2016,08,21,07,06,4.50
2016,08,21,07,07,3.60
2016,08,21,07,08,5.50
2016,08,21,07,09,4.90
2016,08,21,07,10,5.80
2016,08,21,07,11,3.60
2016,08,21,07,12,3.20
2016,08,21,07,13,5.10
2016,08,21,07,14,5.70
2016,08,21,07,15,3.70
2016,08,21,07,16,1.20
2016,08,21,07,17,2.00
2016,08,21,07,18,2.20
2016,08,21,07,19,2.40
2016,08,21,07,20,4.00
2016,08,21,07,21,4.10
2016,08,21,07,22,4.20
2016,08,21,07,23,4.90
2016,08,21,07,24,5.50
2016,08,21,07,25,3.60
2016,08,21,07,26,3.00
2016,08,21,07,27,5.00
2016,08,21,07,28,4.00
2016,08,21,07,29,4.30
2016,08,21,07,30,3.50
2016,08,21,07,31,3.80
2016,08,21,07,32,3.30
2016,08,21,07,33,2.90
2016,08,21,07,34,3.90
2016,08,21,07,35,4.50
2016,08,21,07,36,3.00
2016,08,21,07,37,3.10
2016,08,21,07,38,2.80
2016,08,21,07,39,2.50
2016,08,21,07,40,3.30
2016,08,21,07,41,3.80
2016,08,21,07,42,3.60
2016,08,21,07,43,3.40
2016,08,21,07,44,3.80
2016,08,21,07,45,4.20
2016,08,21,07,46,3.50
2016,08,21,07,47,2.90
2016,08,21,07,48,3.20
2016,08,21,07,49,3.90
2016,08,21,07,50,4.10
2016,08,21,07,51,2.60
2016,08,21,07,52,1.80
2016,08,21,07,53,3.00
2016,08,21,07,54,2.30
2016,08,21,07,55,2.10
2016,08,21,07,56,1.90
2016,08,21,07,57,1.30
2016,08,21,07,58,2.10
2016,08,21,07,59,3.50
2016,08,21,08,00,2.30
2016,08,21,08,01,0.70
2016,08,21,08,02,0.00
2016,08,21,08,03,0.00
2016,08,21,08,04,0.00
2016,08,21,08,05,1.50
2016,08,21,08,06,2.40
2016,08,21,08,07,2.10
2016,08,21,08,08,2.00
2016,08,21,08,09,1.70
2016,08,21,08,10,1.10
2016,08,21,08,11,1.90
2016,08,21,08,12,3.00
2016,08,21,08,13,2.90
2016,08,21,08,14,1.10
2016,08,21,08,15,1.70
2016,08,21,08,16,2.10
2016,08,21,08,17,2.30
2016,08,21,08,18,4.40
2016,08,21,08,19,5.00
2016,08,21,08,20,3.60
2016,08,21,08,21,2.40
2016,08,21,08,22,2.50
2016,08,21,08,23,3.20
2016,08,21,08,24,3.80
2016,08,21,08,25,4.70
2016,08,21,08,26,4.50
2016,08,21,08,27,5.40
2016,08,21,08,28,5.10
2016,08,21,08,29,4.10
2016,08,21,08,30,4.20
2016,08,21,08,31,8.70
2016,08,21,08,32,6.40
2016,08,21,08,33,4.40
2016,08,21,08,34,6.60
2016,08,21,08,35,3.60
2016,08,21,08,36,4.10
2016,08,21,08,37,3.80
2016,08,21,08,38,2.60
2016,08,21,08,39,3.90
2016,08,21,08,40,4.90
2016,08,21,08,41,3.30
2016,08,21,08,42,2.30
2016,08,21,08,43,3.70
2016,08,21,08,44,3.30
2016,08,21,08,45,3.30
2016,08,21,08,46,3.30
2016,08,21,08,47,1.00
2016,08,21,08,48,1.90
2016,08,21,08,49,4.30
2016,08,21,08,50,8.10
2016,08,21,08,51,12.70
2016,08,21,08,52,9.00
2016,08,21,08,53,8.20
2016,08,21,08,54,10.40
2016,08,21,08,55,9.20
2016,08,21,08,56,12.10
2016,08,21,08,57,7.60
2016,08,21,08,58,12.10
2016,08,21,08,59,10.80
2016,08,21,09,00,12.40
2016,08,21,09,01,9.30
2016,08,21,09,02,8.60
2016,08,21,09,03,6.20
2016,08,21,09,04,4.60
2016,08,21,09,05,7.00
2016,08,21,09,06,9.10
2016,08,21,09,07,5.10
2016,08,21,09,08,7.40
2016,08,21,09,09,4.30
2016,08,21,09,10,3.10
2016,08,21,09,11,3.60
2016,08,21,09,12,5.20
2016,08,21,09,13,4.10
2016,08,21,09,14,4.00
2016,08,21,09,15,3.90
2016,08,21,09,16,3.20
2016,08,21,09,17,2.40
2016,08,21,09,18,4.80
2016,08,21,09,19,1.90
2016,08,21,09,20,1.50
2016,08,21,09,21,1.40
2016,08,21,09,22,0.10
2016,08,21,09,23,3.90
2016,08,21,09,24,2.60
2016,08,21,09,25,4.60
2016,08,21,09,26,4.10
2016,08,21,09,27,3.20
2016,08,21,09,28,3.30
2016,08,21,09,29,2.60
2016,08,21,09,30,4.20
2016,08,21,09,31,4.90
2016,08,21,09,32,5.70
2016,08,21,09,33,8.00
2016,08,21,09,34,3.80
2016,08,21,09,35,3.30
2016,08,21,09,36,3.30
2016,08,21,09,37,2.90
2016,08,21,09,38,5.10
2016,08,21,09,39,6.00
2016,08,21,09,40,2.00
2016,08,21,09,41,5.00
2016,08,21,09,42,4.20
2016,08,21,09,43,4.10
2016,08,21,09,44,6.00
2016,08,21,09,45,3.00
2016,08,21,09,46,3.20
2016,08,21,09,47,6.00
2016,08,21,09,48,7.10
2016,08,21,09,49,3.80
2016,08,21,09,50,4.60
2016,08,21,09,51,4.70
2016,08,21,09,52,2.70
2016,08,21,09,53,3.60
2016,08,21,09,54,4.60
2016,08,21,09,55,4.80
2016,08,21,09,56,8.90
2016,08,21,09,57,3.00
2016,08,21,09,58,2.00
2016,08,21,09,59,3.20
2016,08,21,10,00,6.30
2016,08,21,10,01,4.50
2016,08,21,10,02,4.00
2016,08,21,10,03,9.90
2016,08,21,10,04,6.60
2016,08,21,10,05,5.30
2016,08,21,10,06,4.60
2016,08,21,10,07,2.90
2016,08,21,10,08,6.70
2016,08,21,10,09,5.70
2016,08,21,10,10,7.90
2016,08,21,10,11,9.20
2016,08,21,10,12,10.20
2016,08,21,10,13,7.00
2016,08,21,10,14,8.60
2016,08,21,10,15,5.80
2016,08,21,10,16,6.70
2016,08,21,10,17,8.80
2016,08,21,10,18,8.50
2016,08,21,10,19,10.50
2016,08,21,10,20,6.60
2016,08,21,10,21,7.30
2016,08,21,10,22,17.20
2016,08,21,10,23,14.50
2016,08,21,10,24,15.60
2016,08,21,10,25,16.30
2016,08,21,10,26,19.50
2016,08,21,10,27,17.60
2016,08,21,10,28,15.10
2016,08,21,10,29,13.10
2016,08,21,10,30,11.30
2016,08,21,10,31,11.00
2016,08,21,10,32,9.70
2016,08,21,10,33,10.50
2016,08,21,10,34,8.40
2016,08,21,10,35,13.10
2016,08,21,10,36,8.70
2016,08,21,10,37,6.40
2016,08,21,10,38,5.90
2016,08,21,10,39,5.30
2016,08,21,10,40,10.60
2016,08,21,10,41,11.40
2016,08,21,10,42,8.00
2016,08,21,10,43,4.50
2016,08,21,10,44,5.60
2016,08,21,10,45,5.50
2016,08,21,10,46,10.40
2016,08,21,10,47,9.70
2016,08,21,10,48,7.30
2016,08,21,10,49,9.70
2016,08,21,10,50,7.10
2016,08,21,10,51,7.50
2016,08,21,10,52,3.90
2016,08,21,10,53,9.40
2016,08,21,10,54,8.60
2016,08,21,10,55,9.70
2016,08,21,10,56,8.20
2016,08,21,10,57,6.50
2016,08,21,10,58,5.80
2016,08,21,10,59,9.40
2016,08,21,11,00,10.40
2016,08,21,11,01,8.50
2016,08,21,11,02,8.40
2016,08,21,11,03,4.50
2016,08,21,11,04,7.90
2016,08,21,11,05,3.80
2016,08,21,11,06,4.60
2016,08,21,11,07,6.30
2016,08,21,11,08,4.20
2016,08,21,11,09,5.80
2016,08,21,11,10,5.40
2016,08,21,11,11,6.20
2016,08,21,11,12,5.60
2016,08,21,11,13,5.30
2016,08,21,11,14,6.50
2016,08,21,11,15,5.50
2016,08,21,11,16,5.30
2016,08,21,11,17,1.80
2016,08,21,11,18,0.80
2016,08,21,11,19,6.00
2016,08,21,11,20,4.30
2016,08,21,11,21,3.60
2016,08,21,11,22,4.30
2016,08,21,11,23,6.40
2016,08,21,11,24,4.70
2016,08,21,11,25,4.90
2016,08,21,11,26,4.90
2016,08,21,11,27,5.10
2016,08,21,11,28,6.90
2016,08,21,11,29,6.80
2016,08,21,11,30,6.00
2016,08,21,11,31,6.80
2016,08,21,11,32,6.90
2016,08,21,11,33,6.90
2016,08,21,11,34,7.60
2016,08,21,11,35,8.20
2016,08,21,11,36,10.90
2016,08,21,11,37,7.90
2016,08,21,11,38,11.20
2016,08,21,11,39,11.30
2016,08,21,11,40,12.20
2016,08,21,11,41,9.50
2016,08,21,11,42,6.10
2016,08,21,11,43,8.60
2016,08,21,11,44,11.00
2016,08,21,11,45,7.90
2016,08,21,11,46,9.80
2016,08,21,11,47,8.50
2016,08,21,11,48,10.70
2016,08,21,11,49,7.70
2016,08,21,11,50,12.90
2016,08,21,11,51,14.80
2016,08,21,11,52,12.90
2016,08,21,11,53,10.70
2016,08,21,11,54,14.80
2016,08,21,11,55,10.20
2016,08,21,11,56,13.10
2016,08,21,11,57,14.30
2016,08,21,11,58,14.50
2016,08,21,11,59,11.60
2016,08,21,12,00,12.80
2016,08,21,12,01,10.30
2016,08,21,12,02,14.10
2016,08,21,12,03,16.00
2016,08,21,12,04,13.80
2016,08,21,12,05,14.90
2016,08,21,12,06,14.10
2016,08,21,12,07,13.80
2016,08,21,12,08,16.30
2016,08,21,12,09,14.70
2016,08,21,12,10,15.70
2016,08,21,12,11,16.00
2016,08,21,12,12,11.50
2016,08,21,12,13,11.20
2016,08,21,12,14,11.60
2016,08,21,12,15,10.30
2016,08,21,12,16,17.20
2016,08,21,12,17,10.10
2016,08,21,12,18,9.40
2016,08,21,12,19,11.30
2016,08,21,12,20,9.50
2016,08,21,12,21,10.70
2016,08,21,12,22,8.80
2016,08,21,12,23,7.50
2016,08,21,12,24,7.40
2016,08,21,12,25,12.20
2016,08,21,12,26,10.50
2016,08,21,12,27,7.50
2016,08,21,12,28,5.70
2016,08,21,12,29,10.70
2016,08,21,12,30,11.90
2016,08,21,12,31,10.60
2016,08,21,12,32,14.20
2016,08,21,12,33,10.80
2016,08,21,12,34,11.20
2016,08,21,12,35,15.80
2016,08,21,12,36,8.00
2016,08,21,12,37,8.70
2016,08,21,12,38,16.00
2016,08,21,12,39,14.20
2016,08,21,12,40,12.50
2016,08,21,12,41,12.30
2016,08,21,12,42,13.80
2016,08,21,12,43,7.50
2016,08,21,12,44,9.20
2016,08,21,12,45,10.40
2016,08,21,12,46,9.20
2016,08,21,12,47,14.50
2016,08,21,12,48,10.80
2016,08,21,12,49,9.20
2016,08,21,12,50,13.40
2016,08,21,12,51,13.60
2016,08,21,12,52,17.90
2016,08,21,12,53,14.10
2016,08,21,12,54,11.40
2016,08,21,12,55,12.00
2016,08,21,12,56,8.80
2016,08,21,12,57,9.50
2016,08,21,12,58,9.90
2016,08,21,12,59,12.50
2016,08,21,13,00,10.20
2016,08,21,13,01,14.40
2016,08,21,13,02,15.30
2016,08,21,13,03,14.90
2016,08,21,13,04,12.00
2016,08,21,13,05,10.60
2016,08,21,13,06,10.10
2016,08,21,13,07,10.90
2016,08,21,13,08,9.20
2016,08,21,13,09,13.80
2016,08,21,13,10,11.30
2016,08,21,13,11,16.00
2016,08,21,13,12,12.60
2016,08,21,13,13,18.80
2016,08,21,13,14,15.40
2016,08,21,13,15,12.60
2016,08,21,13,16,10.70
2016,08,21,13,17,9.50
2016,08,21,13,18,16.90
2016,08,21,13,19,12.20
2016,08,21,13,20,14.50
2016,08,21,13,21,11.50
2016,08,21,13,22,12.00
2016,08,21,13,23,17.30
2016,08,21,13,24,15.40
2016,08,21,13,25,11.30
2016,08,21,13,26,11.60
2016,08,21,13,27,9.10
2016,08,21,13,28,6.40
2016,08,21,13,29,7.60
2016,08,21,13,30,8.30
2016,08,21,13,31,12.30
2016,08,21,13,32,6.80
2016,08,21,13,33,11.30
2016,08,21,13,34,12.00
2016,08,21,13,35,12.00
2016,08,21,13,36,7.70
2016,08,21,13,37,12.60
2016,08,21,13,38,18.30
2016,08,21,13,39,21.00
2016,08,21,13,40,9.40
2016,08,21,13,41,16.00
2016,08,21,13,42,15.30
2016,08,21,13,43,10.50
2016,08,21,13,44,8.30
2016,08,21,13,45,7.30
2016,08,21,13,46,6.90
2016,08,21,13,47,8.50
2016,08,21,13,48,11.00
2016,08,21,13,49,14.40
2016,08,21,13,50,13.00
2016,08,21,13,51,11.20
2016,08,21,13,52,9.10
2016,08,21,13,53,12.20
2016,08,21,13,54,8.60
2016,08,21,13,55,11.00
2016,08,21,13,56,13.00
2016,08,21,13,57,11.70
2016,08,21,13,58,11.40
2016,08,21,13,59,15.00
2016,08,21,14,00,12.50
2016,08,21,14,01,15.70
2016,08,21,14,02,14.10
2016,08,21,14,03,14.50
2016,08,21,14,04,15.10
2016,08,21,14,05,16.40
2016,08,21,14,06,18.30
2016,08,21,14,07,11.70
2016,08,21,14,08,13.10
2016,08,21,14,09,10.70
2016,08,21,14,10,14.70
2016,08,21,14,11,14.10
2016,08,21,14,12,11.40
2016,08,21,14,13,8.60
2016,08,21,14,14,12.60
2016,08,21,14,15,14.60
2016,08,21,14,16,8.40
2016,08,21,14,17,9.60
2016,08,21,14,18,23.90
2016,08,21,14,19,18.90
2016,08,21,14,20,17.80
2016,08,21,14,21,20.90
2016,08,21,14,22,29.20
2016,08,21,14,23,22.30
2016,08,21,14,24,18.10
2016,08,21,14,25,16.30
2016,08,21,14,26,27.20
2016,08,21,14,27,22.80
2016,08,21,14,28,21.70
2016,08,21,14,29,20.60
2016,08,21,14,30,17.30
2016,08,21,14,31,17.40
2016,08,21,14,32,18.50
2016,08,21,14,33,22.40
2016,08,21,14,34,24.60
2016,08,21,14,35,28.30
2016,08,21,14,36,21.30
2016,08,21,14,37,27.20
2016,08,21,14,38,25.20
2016,08,21,14,39,16.30
2016,08,21,14,40,13.10
2016,08,21,14,41,18.00
2016,08,21,14,42,18.40
2016,08,21,14,43,20.10
2016,08,21,14,44,25.30
2016,08,21,14,45,25.10
2016,08,21,14,46,17.40
2016,08,21,14,47,27.50
2016,08,21,14,48,28.70
2016,08,21,14,49,23.20
2016,08,21,14,50,23.50
2016,08,21,14,51,24.80
2016,08,21,14,52,22.10
2016,08,21,14,53,18.40
2016,08,21,14,54,18.20
2016,08,21,14,55,23.40
2016,08,21,14,56,21.30
2016,08,21,14,57,24.20
2016,08,21,14,58,14.20
2016,08,21,14,59,10.30
2016,08,21,15,00,9.70
2016,08,21,15,01,15.30
2016,08,21,15,02,18.80
2016,08,21,15,03,19.30
2016,08,21,15,04,18.50
2016,08,21,15,05,27.40
2016,08,21,15,06,19.40
2016,08,21,15,07,20.00
2016,08,21,15,08,24.70
2016,08,21,15,09,27.20
2016,08,21,15,10,25.40
2016,08,21,15,11,24.60
2016,08,21,15,12,24.10
2016,08,21,15,13,25.10
2016,08,21,15,14,19.60
2016,08,21,15,15,21.10
2016,08,21,15,16,17.80
2016,08,21,15,17,23.70
2016,08,21,15,18,19.80
2016,08,21,15,19,24.40
2016,08,21,15,20,14.80
2016,08,21,15,21,18.70
2016,08,21,15,22,28.20
2016,08,21,15,23,29.20
2016,08,21,15,24,27.80
2016,08,21,15,25,25.70
2016,08,21,15,26,31.90
2016,08,21,15,27,27.20
2016,08,21,15,28,22.60
2016,08,21,15,29,23.60
2016,08,21,15,30,24.10
2016,08,21,15,31,24.30
2016,08,21,15,32,23.80
2016,08,21,15,33,17.80
2016,08,21,15,34,20.30
2016,08,21,15,35,21.80
2016,08,21,15,36,23.10
2016,08,21,15,37,22.90
2016,08,21,15,38,25.90
2016,08,21,15,39,29.90
2016,08,21,15,40,26.90
2016,08,21,15,41,21.80
2016,08,21,15,42,22.50
2016,08,21,15,43,19.70
2016,08,21,15,44,23.30
2016,08,21,15,45,24.90
2016,08,21,15,46,25.20
2016,08,21,15,47,29.40
2016,08,21,15,48,26.60
2016,08,21,15,49,21.00
2016,08,21,15,50,22.00
2016,08,21,15,51,22.90
2016,08,21,15,52,24.70
2016,08,21,15,53,25.30
2016,08,21,15,54,21.30
2016,08,21,15,55,23.70
2016,08,21,15,56,23.90
2016,08,21,15,57,23.20
2016,08,21,15,58,25.90
2016,08,21,15,59,24.20
2016,08,21,16,00,18.20
2016,08,21,16,01,15.10
2016,08,21,16,02,22.20
2016,08,21,16,03,19.40
2016,08,21,16,04,24.20
2016,08,21,16,05,21.20
2016,08,21,16,06,20.10
2016,08,21,16,07,13.90
2016,08,21,16,08,13.50
2016,08,21,16,09,8.60
2016,08,21,16,10,13.00
2016,08,21,16,11,16.60
2016,08,21,16,12,19.20
2016,08,21,16,13,22.10
2016,08,21,16,14,17.80
2016,08,21,16,15,18.90
2016,08,21,16,16,21.80
2016,08,21,16,17,19.10
2016,08,21,16,18,22.80
2016,08,21,16,19,19.40
2016,08,21,16,20,16.50
2016,08,21,16,21,14.30
2016,08,21,16,22,14.50
2016,08,21,16,23,15.60
2016,08,21,16,24,21.20
2016,08,21,16,25,21.40
2016,08,21,16,26,25.20
2016,08,21,16,27,20.20
2016,08,21,16,28,20.60
2016,08,21,16,29,22.80
2016,08,21,16,30,19.50
2016,08,21,16,31,21.50
2016,08,21,16,32,18.60
2016,08,21,16,33,18.40
2016,08,21,16,34,19.60
2016,08,21,16,35,18.10
2016,08,21,16,36,17.60
2016,08,21,16,37,19.30
2016,08,21,16,38,15.40
2016,08,21,16,39,21.20
2016,08,21,16,40,23.50
2016,08,21,16,41,22.80
2016,08,21,16,42,20.60
2016,08,21,16,43,19.80
2016,08,21,16,44,22.10
2016,08,21,16,45,27.80
2016,08,21,16,46,22.80
2016,08,21,16,47,16.70
2016,08,21,16,48,21.90
2016,08,21,16,49,17.90
2016,08,21,16,50,14.40
2016,08,21,16,51,9.90
2016,08,21,16,52,14.70
2016,08,21,16,53,14.40
2016,08,21,16,54,14.80
2016,08,21,16,55,14.20
2016,08,21,16,56,16.10
2016,08,21,16,57,13.30
2016,08,21,16,58,18.40
2016,08,21,16,59,15.00
2016,08,21,17,00,15.10
2016,08,21,17,01,17.00
2016,08,21,17,02,17.90
2016,08,21,17,03,18.70
2016,08,21,17,04,16.30
2016,08,21,17,05,16.70
2016,08,21,17,06,15.00
2016,08,21,17,07,13.90
2016,08,21,17,08,18.70
2016,08,21,17,09,11.60
2016,08,21,17,10,15.30
2016,08,21,17,11,15.10
2016,08,21,17,12,18.80
2016,08,21,17,13,17.60
2016,08,21,17,14,15.90
2016,08,21,17,15,14.00
2016,08,21,17,16,16.30
2016,08,21,17,17,15.70
2016,08,21,17,18,17.20
2016,08,21,17,19,13.50
2016,08,21,17,20,20.40
2016,08,21,17,21,17.30
2016,08,21,17,22,13.00
2016,08,21,17,23,15.80
2016,08,21,17,24,16.90
2016,08,21,17,25,16.30
2016,08,21,17,26,12.50
2016,08,21,17,27,13.90
2016,08,21,17,28,15.10
2016,08,21,17,29,12.00
2016,08,21,17,30,18.00
2016,08,21,17,31,15.30
2016,08,21,17,32,16.20
2016,08,21,17,33,18.80
2016,08,21,17,34,16.40
2016,08,21,17,35,8.50
2016,08,21,17,36,6.70
2016,08,21,17,37,12.60
2016,08,21,17,38,14.00
2016,08,21,17,39,15.30
2016,08,21,17,40,11.10
2016,08,21,17,41,19.70
2016,08,21,17,42,14.50
2016,08,21,17,43,11.20
2016,08,21,17,44,13.50
2016,08,21,17,45,10.30
2016,08,21,17,46,18.20
2016,08,21,17,47,16.70
2016,08,21,17,48,20.60
2016,08,21,17,49,21.20
2016,08,21,17,50,12.80
2016,08,21,17,51,9.00